AFL1296 ULMM-UUYH

Flight info

Callsign AFL1296
Flight time N/A
Altitude 35000
Route K0876F350 DCT LOPRA T822 SOTIS P35 UTUKA DCT
Aircraft B738/M-SDGILRWY/SB1

Departure

Time 2026-04-27 16:48
Airport Emperor Nicholas II Murmansk Airport (ULMM)

Arrival

Time N/A
Airport Ukhta Airport (UUYH)
Time Latitude Longitude Altitude Speed Heading
2026-04-27 16:18 68.78374 32.75599 243 ft 0 kts 146°
2026-04-27 16:39 68.78375 32.75597 243 ft 1 kts 146°
2026-04-27 16:39 68.78387 32.75574 243 ft 2 kts 146°
2026-04-27 16:40 68.78400 32.75552 243 ft 2 kts 146°
2026-04-27 16:40 68.78412 32.75531 243 ft 1 kts 163°
2026-04-27 16:40 68.78425 32.75529 243 ft 1 kts 197°
2026-04-27 16:40 68.78436 32.75547 242 ft 1 kts 230°
2026-04-27 16:41 68.78442 32.75579 242 ft 2 kts 248°
2026-04-27 16:41 68.78450 32.75613 241 ft 2 kts 232°
2026-04-27 16:41 68.78455 32.75631 241 ft 0 kts 237°
2026-04-27 16:43 68.78452 32.75620 241 ft 2 kts 237°
2026-04-27 16:43 68.78432 32.75533 242 ft 8 kts 237°
2026-04-27 16:44 68.78404 32.75416 244 ft 5 kts 237°
2026-04-27 16:44 68.78389 32.75350 246 ft 4 kts 237°
2026-04-27 16:44 68.78355 32.75210 249 ft 12 kts 238°
2026-04-27 16:44 68.78297 32.74989 254 ft 14 kts 209°
2026-04-27 16:45 68.78215 32.75056 255 ft 12 kts 145°
2026-04-27 16:45 68.78129 32.75219 255 ft 19 kts 147°
2026-04-27 16:45 68.77992 32.75465 253 ft 25 kts 147°
2026-04-27 16:45 68.77842 32.75741 250 ft 26 kts 146°
2026-04-27 16:46 68.77690 32.76021 248 ft 26 kts 145°
2026-04-27 16:46 68.77541 32.76303 251 ft 24 kts 146°
2026-04-27 16:46 68.77425 32.76570 258 ft 15 kts 138°
2026-04-27 16:46 68.77402 32.76560 258 ft 6 kts 319°
2026-04-27 16:47 68.77481 32.76418 254 ft 32 kts 326°
2026-04-27 16:47 68.77863 32.75687 251 ft 98 kts 327°
2026-04-27 16:47 68.78592 32.74354 251 ft 151 kts 325°
2026-04-27 16:47 68.79524 32.72712 774 ft 155 kts 328°
2026-04-27 16:48 68.80409 32.71214 1460 ft 149 kts 328°
2026-04-27 16:48 68.81306 32.69570 1746 ft 162 kts 325°
2026-04-27 16:48 68.82216 32.67615 2073 ft 172 kts 325°
2026-04-27 16:49 68.84326 32.63699 2664 ft 197 kts 330°
2026-04-27 16:49 68.85493 32.61510 3049 ft 208 kts 329°
2026-04-27 16:49 68.86584 32.58886 3696 ft 215 kts 316°
2026-04-27 16:49 68.87215 32.55105 4388 ft 231 kts 288°
2026-04-27 16:50 68.87131 32.50520 4877 ft 255 kts 264°
2026-04-27 16:50 68.86398 32.45807 5329 ft 276 kts 245°
2026-04-27 16:50 68.85259 32.41505 5877 ft 288 kts 230°
2026-04-27 16:50 68.83585 32.38427 5984 ft 298 kts 203°
2026-04-27 16:51 68.81535 32.37681 5968 ft 298 kts 174°
2026-04-27 16:51 68.79565 32.39136 5987 ft 295 kts 153°
2026-04-27 16:51 68.77809 32.41955 6009 ft 292 kts 142°
2026-04-27 16:51 68.76147 32.45168 5997 ft 291 kts 141°
2026-04-27 16:52 68.74497 32.48408 6000 ft 291 kts 141°
2026-04-27 16:52 68.72833 32.51614 5996 ft 292 kts 141°
2026-04-27 16:52 68.71171 32.54794 5991 ft 293 kts 142°
2026-04-27 16:52 68.69513 32.57906 5995 ft 291 kts 141°
2026-04-27 16:53 68.67983 32.61440 5991 ft 286 kts 125°
2026-04-27 16:53 68.67085 32.66173 6205 ft 281 kts 96°
2026-04-27 16:53 68.66778 32.71366 7072 ft 272 kts 91°
2026-04-27 16:53 68.66497 32.76456 7798 ft 274 kts 94°
2026-04-27 16:54 68.66149 32.81554 8496 ft 276 kts 95°
2026-04-27 16:54 68.65771 32.86736 9203 ft 277 kts 96°
2026-04-27 16:54 68.65399 32.91884 9841 ft 280 kts 96°
2026-04-27 16:54 68.65011 32.97136 10417 ft 287 kts 96°
2026-04-27 16:55 68.64617 33.02631 10849 ft 299 kts 96°
2026-04-27 16:55 68.64204 33.08305 11203 ft 311 kts 97°
2026-04-27 16:55 68.63760 33.14243 11577 ft 326 kts 99°
2026-04-27 16:55 68.62968 33.20162 11889 ft 347 kts 115°
2026-04-27 16:56 68.61442 33.25451 12167 ft 367 kts 130°
2026-04-27 16:56 68.59537 33.30381 12459 ft 382 kts 134°
2026-04-27 16:56 68.57516 33.35277 12736 ft 397 kts 135°
2026-04-27 16:56 68.55431 33.40315 13154 ft 406 kts 135°
2026-04-27 16:57 68.53341 33.45417 13760 ft 411 kts 134°
2026-04-27 16:57 68.51236 33.50776 14439 ft 413 kts 132°
2026-04-27 16:57 68.49192 33.56264 15131 ft 416 kts 131°
2026-04-27 16:57 68.47155 33.61771 15808 ft 419 kts 131°
2026-04-27 16:58 68.45118 33.67414 16495 ft 422 kts 131°
2026-04-27 16:58 68.43062 33.73151 17182 ft 425 kts 131°
2026-04-27 16:58 68.41078 33.78662 17851 ft 428 kts 131°
2026-04-27 16:58 68.39058 33.84229 18508 ft 430 kts 131°
2026-04-27 16:59 68.36962 33.89960 19155 ft 433 kts 131°
2026-04-27 16:59 68.34830 33.95748 19782 ft 437 kts 131°
2026-04-27 16:59 68.32662 34.01602 20409 ft 440 kts 131°
2026-04-27 16:59 68.30502 34.07412 20997 ft 443 kts 132°
2026-04-27 17:00 68.26845 34.17202 21920 ft 449 kts 132°
2026-04-27 17:00 68.23890 34.25076 22648 ft 453 kts 133°
2026-04-27 17:00 68.21655 34.31010 23188 ft 456 kts 133°
2026-04-27 17:01 68.19407 34.36972 23711 ft 460 kts 133°
2026-04-27 17:01 68.17123 34.43022 24221 ft 463 kts 133°
2026-04-27 17:01 68.14831 34.49081 24699 ft 466 kts 133°
2026-04-27 17:01 68.12524 34.55166 25152 ft 470 kts 133°
2026-04-27 17:02 68.10221 34.61219 25701 ft 469 kts 134°
2026-04-27 17:02 68.07881 34.67353 26258 ft 467 kts 135°
2026-04-27 17:02 68.05563 34.73414 26714 ft 467 kts 135°
2026-04-27 17:02 68.03311 34.79281 27140 ft 467 kts 135°
2026-04-27 17:03 68.01012 34.85261 27581 ft 467 kts 135°
2026-04-27 17:03 67.98649 34.91385 28008 ft 467 kts 135°
2026-04-27 17:03 67.96311 34.97423 28418 ft 467 kts 136°
2026-04-27 17:03 67.93973 35.03447 28820 ft 467 kts 136°
2026-04-27 17:04 67.91658 35.09392 29232 ft 466 kts 136°
2026-04-27 17:04 67.89343 35.15321 29629 ft 466 kts 137°
2026-04-27 17:04 67.87026 35.21236 29984 ft 466 kts 137°
2026-04-27 17:04 67.84695 35.27172 30380 ft 465 kts 137°
2026-04-27 17:05 67.82372 35.33068 30699 ft 465 kts 137°
2026-04-27 17:05 67.80048 35.38950 31022 ft 465 kts 137°
2026-04-27 17:05 67.77686 35.44909 31299 ft 465 kts 137°
2026-04-27 17:05 67.75336 35.50823 31593 ft 466 kts 137°
2026-04-27 17:06 67.72997 35.56690 31902 ft 466 kts 137°
2026-04-27 17:06 67.70651 35.62559 32198 ft 466 kts 137°
2026-04-27 17:06 67.68291 35.68450 32470 ft 467 kts 138°
2026-04-27 17:06 67.65938 35.74305 32747 ft 467 kts 138°
2026-04-27 17:07 67.63602 35.80098 33018 ft 467 kts 138°
2026-04-27 17:07 67.61237 35.85948 33286 ft 467 kts 138°
2026-04-27 17:07 67.58871 35.91777 33540 ft 468 kts 138°
2026-04-27 17:07 67.56520 35.97558 33846 ft 467 kts 138°
2026-04-27 17:08 67.54164 36.03333 34127 ft 467 kts 138°
2026-04-27 17:08 67.51785 36.09148 34447 ft 466 kts 138°
2026-04-27 17:08 67.49438 36.14869 34713 ft 466 kts 138°
2026-04-27 17:08 67.47084 36.20591 34836 ft 469 kts 138°
2026-04-27 17:09 67.44709 36.26348 34837 ft 468 kts 138°
2026-04-27 17:09 67.39949 36.37837 34838 ft 465 kts 138°
2026-04-27 17:10 67.35171 36.49300 34837 ft 465 kts 138°
2026-04-27 17:10 67.30424 36.60621 34834 ft 465 kts 138°
2026-04-27 17:11 67.25658 36.71928 34827 ft 464 kts 139°
2026-04-27 17:11 67.18632 36.88480 34829 ft 465 kts 139°
2026-04-27 17:12 67.11474 37.05200 34816 ft 463 kts 139°
2026-04-27 17:13 67.06696 37.16284 34811 ft 463 kts 139°
2026-04-27 17:13 67.01939 37.27259 34811 ft 462 kts 140°
2026-04-27 17:14 66.97163 37.38212 34807 ft 462 kts 139°
2026-04-27 17:14 66.92361 37.49169 34806 ft 462 kts 140°
2026-04-27 17:15 66.87598 37.59975 34794 ft 462 kts 140°
2026-04-27 17:15 66.82777 37.70853 34799 ft 462 kts 141°
2026-04-27 17:16 66.78053 37.81455 34798 ft 462 kts 141°
2026-04-27 17:16 66.73244 37.92191 34793 ft 461 kts 141°
2026-04-27 17:17 66.68455 38.02828 34804 ft 460 kts 141°
2026-04-27 17:17 66.63673 38.13391 34787 ft 459 kts 141°
2026-04-27 17:18 66.56473 38.29196 34781 ft 459 kts 141°
2026-04-27 17:18 66.51665 38.39681 34772 ft 459 kts 141°
2026-04-27 17:19 66.46886 38.50044 34772 ft 458 kts 141°
2026-04-27 17:19 66.42078 38.60413 34791 ft 457 kts 141°
2026-04-27 17:20 66.37279 38.70713 34774 ft 456 kts 142°
2026-04-27 17:20 66.32629 38.80636 34767 ft 456 kts 142°
2026-04-27 17:21 66.27801 38.90890 34749 ft 456 kts 142°
2026-04-27 17:21 66.22974 39.01085 34766 ft 457 kts 142°
2026-04-27 17:22 66.18169 39.11187 34744 ft 456 kts 142°
2026-04-27 17:22 66.13316 39.21337 34766 ft 455 kts 142°
2026-04-27 17:23 66.08511 39.31285 34769 ft 454 kts 142°
2026-04-27 17:23 66.03667 39.41182 34773 ft 453 kts 143°
2026-04-27 17:24 65.98823 39.51018 34777 ft 451 kts 143°
2026-04-27 17:24 65.93998 39.60773 34772 ft 452 kts 143°
2026-04-27 17:25 65.89170 39.70544 34786 ft 451 kts 143°
2026-04-27 17:25 65.84391 39.80347 34780 ft 449 kts 143°
2026-04-27 17:26 65.79689 39.89987 34756 ft 448 kts 143°
2026-04-27 17:26 65.74916 39.99716 34750 ft 448 kts 143°
2026-04-27 17:27 65.70371 40.10038 34747 ft 451 kts 133°
2026-04-27 17:27 65.67202 40.23256 34756 ft 461 kts 114°
2026-04-27 17:28 65.65179 40.37999 34734 ft 463 kts 109°
2026-04-27 17:29 65.62569 40.60479 34728 ft 464 kts 109°
2026-04-27 17:29 65.60815 40.75466 34719 ft 462 kts 110°
2026-04-27 17:30 65.59020 40.90398 34708 ft 465 kts 110°
2026-04-27 17:30 65.56234 41.12996 34701 ft 468 kts 110°
2026-04-27 17:31 65.54487 41.26947 34725 ft 470 kts 110°
2026-04-27 17:31 65.53661 41.33497 34670 ft 466 kts 110°
2026-04-27 17:32 65.50792 41.56034 34714 ft 469 kts 110°
2026-04-27 17:33 65.48871 41.70948 34740 ft 469 kts 111°
2026-04-27 17:33 65.46925 41.85926 34712 ft 468 kts 111°
2026-04-27 17:34 65.44991 42.00676 34691 ft 468 kts 111°
2026-04-27 17:34 65.42999 42.15521 34689 ft 467 kts 112°
2026-04-27 17:35 65.40951 42.30363 34686 ft 467 kts 112°
2026-04-27 17:35 65.38895 42.45106 34670 ft 466 kts 112°
2026-04-27 17:36 65.36829 42.59824 34668 ft 466 kts 112°
2026-04-27 17:36 65.34759 42.74468 34666 ft 465 kts 112°
2026-04-27 17:37 65.32760 42.88711 34665 ft 465 kts 112°
2026-04-27 17:37 65.30713 43.03285 34648 ft 463 kts 112°
2026-04-27 17:38 65.28643 43.17893 34646 ft 464 kts 112°
2026-04-27 17:38 65.26569 43.32400 34660 ft 464 kts 112°
2026-04-27 17:39 65.24477 43.46883 34654 ft 464 kts 112°
2026-04-27 17:39 65.22376 43.61308 34643 ft 463 kts 112°
2026-04-27 17:40 65.20251 43.75788 34637 ft 462 kts 113°
2026-04-27 17:40 65.18160 43.89914 34637 ft 461 kts 114°
2026-04-27 17:41 65.16034 44.04155 34637 ft 461 kts 114°
2026-04-27 17:41 65.13885 44.18432 34626 ft 461 kts 114°
2026-04-27 17:42 65.11703 44.32670 34617 ft 461 kts 114°
2026-04-27 17:42 65.09493 44.46893 34622 ft 460 kts 114°
2026-04-27 17:43 65.07270 44.61073 34614 ft 460 kts 114°
2026-04-27 17:43 65.05051 44.75139 34621 ft 460 kts 115°
2026-04-27 17:44 65.02889 44.88751 34619 ft 459 kts 115°
2026-04-27 17:44 65.00669 45.02633 34610 ft 459 kts 115°
2026-04-27 17:45 64.98393 45.16757 34592 ft 459 kts 115°
2026-04-27 17:45 64.96110 45.30815 34598 ft 460 kts 115°
2026-04-27 17:46 64.93800 45.44935 34589 ft 458 kts 115°
2026-04-27 17:46 64.91482 45.59000 34587 ft 458 kts 115°
2026-04-27 17:47 64.89191 45.72915 34582 ft 459 kts 115°
2026-04-27 17:47 64.87279 45.86665 34580 ft 461 kts 111°
2026-04-27 17:48 64.85497 46.01115 34585 ft 461 kts 110°
2026-04-27 17:48 64.83721 46.15540 34570 ft 459 kts 110°
2026-04-27 17:49 64.81905 46.29934 34567 ft 460 kts 110°
2026-04-27 17:49 64.80067 46.44208 34561 ft 461 kts 110°
2026-04-27 17:50 64.78190 46.58569 34551 ft 461 kts 111°
2026-04-27 17:50 64.76936 46.68093 34546 ft 459 kts 112°
2026-04-27 17:52 64.70023 47.19351 34531 ft 458 kts 112°
2026-04-27 17:52 64.67968 47.33482 34547 ft 460 kts 113°
2026-04-27 17:53 64.65907 47.47478 34545 ft 460 kts 113°
2026-04-27 17:53 64.64061 47.59955 34539 ft 460 kts 113°
2026-04-27 17:54 64.62533 47.70246 34547 ft 459 kts 114°
2026-04-27 17:54 64.60464 47.84109 34545 ft 459 kts 114°
2026-04-27 17:55 64.58363 47.98083 34549 ft 459 kts 114°
2026-04-27 17:55 64.56260 48.11979 34540 ft 459 kts 114°
2026-04-27 17:56 64.54131 48.25944 34543 ft 459 kts 114°
2026-04-27 17:56 64.52000 48.39807 34549 ft 458 kts 114°
2026-04-27 17:57 64.49860 48.53613 34553 ft 459 kts 113°
2026-04-27 17:57 64.47690 48.67522 34547 ft 457 kts 114°